{"data":{"norad_id":62465,"intl_designator":"2024-254D","name":"STARLINK-11178 [DTC]","alt_names":[],"object_type":"PAYLOAD","status":"ACTIVE","operator":null,"country":"US","launch_date":"2024-12-31","launch_site_code":"AFETR","launch_vehicle":null,"mission":null,"orbit_class":"UNKNOWN","rcs_meters":null,"size_class":null,"mass_kg":null,"dimensions":null,"purposes":["comms"],"wikipedia_slug":null,"has_3d_model":false,"image_url":null,"decayed_at":null,"tle_current":{"epoch":"2026-05-25T05:06:17.960832Z","epoch_age_seconds":50619,"freshness":"FRESH","line1":"1 62465U 24254D   26145.21270788  .00193344  00000+0  14735-2 0  9998","line2":"2 62465  42.9975 121.9628 0001259 182.0726 178.0136 15.70872224 81275","mean_motion":15.70872224,"eccentricity":0.0001259,"inclination_deg":42.9975,"raan_deg":121.9628,"arg_perigee_deg":182.0726,"mean_anomaly_deg":178.0136,"bstar":0.0014735,"rev_number":8127,"period_min":91.668817998019,"perigee_km":355.55508233911,"apogee_km":357.25083950127,"semimajor_km":6734.5399609202,"source":"CELESTRAK","updated_at":"2026-05-25T13:38:19.690179Z"}}}